Time,TemperatureF,DewpointF,PressureIn,WindDirection,WindDirectionDegrees,WindSpeedMPH,WindSpeedGustMPH,Humidity,HourlyPrecipIn,Conditions,Clouds,dailyrainin,SoftwareType,DateUTC
2013-02-18 00:02:00,32.0,30.0,30.34,NNE,32,3.0,4.0,95,-99.99,,,-99.99,,2013-02-18 05:02:00,
2013-02-18 00:21:00,32.0,31.0,30.34,NE,35,2.0,4.0,95,-99.99,,,-99.99,,2013-02-18 05:21:00,
2013-02-18 00:32:00,32.0,31.0,30.34,NE,35,2.0,4.0,95,-99.99,,,-99.99,,2013-02-18 05:32:00,
2013-02-18 00:42:00,31.0,30.0,30.34,NNE,32,3.0,5.0,95,-99.99,,,-99.99,,2013-02-18 05:42:00,
2013-02-18 00:52:00,31.0,30.0,30.34,NNE,32,3.0,5.0,95,-99.99,,,-99.99,,2013-02-18 05:52:00,
2013-02-18 01:02:00,31.0,30.0,30.34,NNE,30,3.0,5.0,95,-99.99,,,-99.99,,2013-02-18 06:02:00,
2013-02-18 01:22:00,32.0,30.0,30.33,NE,34,3.0,6.0,95,-99.99,,,-99.99,,2013-02-18 06:22:00,
2013-02-18 01:32:00,32.0,30.0,30.33,NE,34,3.0,6.0,95,-99.99,,,-99.99,,2013-02-18 06:32:00,
2013-02-18 01:42:00,32.0,31.0,30.33,NE,36,3.0,5.0,95,-99.99,,,-99.99,,2013-02-18 06:42:00,
2013-02-18 01:52:00,32.0,30.0,30.33,NE,45,3.0,5.0,95,-99.99,,,-99.99,,2013-02-18 06:52:00,
2013-02-18 02:02:00,31.0,30.0,30.33,NNE,30,3.0,5.0,95,-99.99,,,-99.99,,2013-02-18 07:02:00,
2013-02-18 02:22:00,31.0,30.0,30.33,NNE,30,2.0,4.0,95,-99.99,,,-99.99,,2013-02-18 07:22:00,
2013-02-18 02:32:00,31.0,30.0,30.33,NNE,30,2.0,4.0,95,-99.99,,,-99.99,,2013-02-18 07:32:00,
2013-02-18 02:42:00,30.0,29.0,30.32,NE,45,2.0,4.0,95,-99.99,,,-99.99,,2013-02-18 07:42:00,
2013-02-18 02:52:00,30.0,29.0,30.32,NE,45,2.0,4.0,95,-99.99,,,-99.99,,2013-02-18 07:52:00,
2013-02-18 03:01:00,29.0,28.0,30.31,SSE,166,1.0,2.0,95,-99.99,,,-99.99,,2013-02-18 08:01:00,
2013-02-18 03:22:00,30.0,28.0,30.31,NNE,22,2.0,3.0,95,-99.99,,,-99.99,,2013-02-18 08:22:00,
2013-02-18 03:33:00,30.0,28.0,30.31,NNE,22,2.0,3.0,95,-99.99,,,-99.99,,2013-02-18 08:33:00,
2013-02-18 03:42:00,29.0,28.0,30.31,ESE,108,1.0,2.0,95,-99.99,,,-99.99,,2013-02-18 08:42:00,
2013-02-18 03:52:00,29.0,28.0,30.31,ESE,108,1.0,2.0,95,-99.99,,,-99.99,,2013-02-18 08:52:00,
2013-02-18 04:03:00,29.0,28.0,30.31,NNE,25,3.0,6.0,95,-99.99,,,-99.99,,2013-02-18 09:03:00,
2013-02-18 04:22:00,29.0,28.0,30.31,NE,53,3.0,5.0,96,-99.99,,,-99.99,,2013-02-18 09:22:00,
2013-02-18 04:32:00,29.0,28.0,30.31,NE,53,3.0,5.0,96,-99.99,,,-99.99,,2013-02-18 09:32:00,
2013-02-18 04:42:00,29.0,28.0,30.31,NNE,32,3.0,4.0,96,-99.99,,,-99.99,,2013-02-18 09:42:00,
2013-02-18 04:52:00,29.0,28.0,30.31,NNE,32,3.0,4.0,96,-99.99,,,-99.99,,2013-02-18 09:52:00,
2013-02-18 05:01:00,30.0,29.0,30.31,NNE,27,3.0,6.0,96,-99.99,,,-99.99,,2013-02-18 10:01:00,
2013-02-18 05:22:00,31.0,30.0,30.30,NNE,27,3.0,5.0,96,-99.99,,,-99.99,,2013-02-18 10:22:00,
2013-02-18 05:32:00,31.0,30.0,30.30,NNE,27,3.0,5.0,96,-99.99,,,-99.99,,2013-02-18 10:32:00,
2013-02-18 05:42:00,31.0,30.0,30.31,NNE,19,3.0,5.0,96,-99.99,,,-99.99,,2013-02-18 10:42:00,
2013-02-18 05:53:00,31.0,30.0,30.31,NNE,19,3.0,5.0,96,-99.99,,,-99.99,,2013-02-18 10:53:00,
2013-02-18 06:02:00,30.0,29.0,30.31,NE,42,2.0,4.0,96,-99.99,,,-99.99,,2013-02-18 11:02:00,
2013-02-18 06:22:00,30.0,29.0,30.31,NE,53,2.0,3.0,96,-99.99,,,-99.99,,2013-02-18 11:22:00,
2013-02-18 06:33:00,30.0,29.0,30.31,NE,53,2.0,3.0,96,-99.99,,,-99.99,,2013-02-18 11:33:00,
2013-02-18 06:42:00,30.0,29.0,30.31,NNE,18,3.0,4.0,96,-99.99,,,-99.99,,2013-02-18 11:42:00,
2013-02-18 06:53:00,30.0,29.0,30.31,NNE,18,3.0,4.0,96,-99.99,,,-99.99,,2013-02-18 11:53:00,
2013-02-18 07:02:00,30.0,29.0,30.31,NNE,18,3.0,4.0,96,-99.99,,,-99.99,,2013-02-18 12:02:00,
2013-02-18 07:12:00,30.0,29.0,30.31,NNE,18,3.0,4.0,96,-99.99,,,-99.99,,2013-02-18 12:12:00,
2013-02-18 07:22:00,31.0,30.0,30.32,NNE,20,3.0,5.0,96,-99.99,,,-99.99,,2013-02-18 12:22:00,
2013-02-18 07:32:00,31.0,30.0,30.32,NNE,20,3.0,5.0,96,-99.99,,,-99.99,,2013-02-18 12:32:00,
2013-02-18 07:42:00,31.0,30.0,30.32,NNE,31,3.0,6.0,96,-99.99,,,-99.99,,2013-02-18 12:42:00,
2013-02-18 07:54:00,31.0,30.0,30.32,NNE,31,3.0,6.0,96,-99.99,,,-99.99,,2013-02-18 12:54:00,
2013-02-18 08:03:00,32.0,31.0,30.32,NNE,16,3.0,6.0,96,-99.99,,,-99.99,,2013-02-18 13:03:00,
2013-02-18 08:12:00,32.0,31.0,30.32,NNE,16,3.0,6.0,96,-99.99,,,-99.99,,2013-02-18 13:12:00,
2013-02-18 08:23:00,36.0,33.0,30.33,ENE,66,3.0,5.0,88,-99.99,,,-99.99,,2013-02-18 13:23:00,
2013-02-18 08:32:00,36.0,33.0,30.33,ENE,66,3.0,5.0,88,-99.99,,,-99.99,,2013-02-18 13:32:00,
2013-02-18 08:42:00,40.0,33.0,30.33,ENE,62,4.0,7.0,75,-99.99,,,-99.99,,2013-02-18 13:42:00,
2013-02-18 08:53:00,40.0,33.0,30.33,ENE,62,4.0,7.0,75,-99.99,,,-99.99,,2013-02-18 13:53:00,
2013-02-18 09:02:00,42.0,32.0,30.33,NE,51,5.0,8.0,66,-99.99,,,-99.99,,2013-02-18 14:02:00,
2013-02-18 09:12:00,42.0,32.0,30.33,NE,51,5.0,8.0,66,-99.99,,,-99.99,,2013-02-18 14:12:00,
2013-02-18 09:22:00,49.0,30.0,30.33,ENE,67,6.0,11.0,48,-99.99,,,-99.99,,2013-02-18 14:22:00,
2013-02-18 09:33:00,49.0,30.0,30.33,ENE,67,6.0,11.0,48,-99.99,,,-99.99,,2013-02-18 14:33:00,
2013-02-18 09:42:00,51.0,30.0,30.34,ENE,75,7.0,12.0,44,-99.99,,,-99.99,,2013-02-18 14:42:00,
2013-02-18 09:54:00,51.0,30.0,30.34,ENE,75,7.0,12.0,44,-99.99,,,-99.99,,2013-02-18 14:54:00,
2013-02-18 10:02:00,54.0,33.0,30.34,ENE,58,7.0,13.0,45,-99.99,,,-99.99,,2013-02-18 15:02:00,
2013-02-18 10:32:00,56.0,35.0,30.34,NE,56,7.0,14.0,45,-99.99,,,-99.99,,2013-02-18 15:32:00,
2013-02-18 10:42:00,57.0,36.0,30.34,NE,53,8.0,15.0,45,-99.99,,,-99.99,,2013-02-18 15:42:00,
2013-02-18 10:53:00,57.0,36.0,30.34,NE,53,8.0,15.0,45,-99.99,,,-99.99,,2013-02-18 15:53:00,
2013-02-18 11:03:00,58.0,37.0,30.33,ENE,63,8.0,20.0,45,-99.99,,,-99.99,,2013-02-18 16:03:00,
2013-02-18 11:12:00,58.0,37.0,30.33,ENE,63,8.0,20.0,45,-99.99,,,-99.99,,2013-02-18 16:12:00,
2013-02-18 11:22:00,57.0,37.0,30.33,ENE,62,8.0,14.0,45,-99.99,,,-99.99,,2013-02-18 16:22:00,
2013-02-18 11:33:00,57.0,37.0,30.33,ENE,62,8.0,14.0,45,-99.99,,,-99.99,,2013-02-18 16:33:00,
2013-02-18 11:43:00,63.0,42.0,30.33,ENE,72,7.0,16.0,46,-99.99,,,-99.99,,2013-02-18 16:43:00,
2013-02-18 11:53:00,63.0,42.0,30.33,ENE,72,7.0,16.0,46,-99.99,,,-99.99,,2013-02-18 16:53:00,
2013-02-18 12:04:00,65.0,45.0,30.32,ENE,77,9.0,19.0,47,-99.99,,,-99.99,,2013-02-18 17:04:00,
2013-02-18 12:12:00,65.0,45.0,30.32,ENE,77,9.0,19.0,47,-99.99,,,-99.99,,2013-02-18 17:12:00,
2013-02-18 12:22:00,66.0,46.0,30.31,East,79,7.0,16.0,47,-99.99,,,-99.99,,2013-02-18 17:22:00,
2013-02-18 12:33:00,66.0,46.0,30.31,East,79,7.0,16.0,47,-99.99,,,-99.99,,2013-02-18 17:33:00,
2013-02-18 12:42:00,66.0,46.0,30.31,East,79,7.0,16.0,47,-99.99,,,-99.99,,2013-02-18 17:42:00,
2013-02-18 12:53:00,66.0,46.0,30.31,East,79,7.0,16.0,47,-99.99,,,-99.99,,2013-02-18 17:53:00,
2013-02-18 13:02:00,68.0,47.0,30.31,East,93,8.0,19.0,47,-99.99,,,-99.99,,2013-02-18 18:02:00,
2013-02-18 13:13:00,68.0,47.0,30.31,East,93,8.0,19.0,47,-99.99,,,-99.99,,2013-02-18 18:13:00,
2013-02-18 13:23:00,68.0,47.0,30.29,ESE,109,10.0,18.0,46,-99.99,,,-99.99,,2013-02-18 18:23:00,
2013-02-18 13:33:00,69.0,47.0,30.28,ESE,109,11.0,19.0,44,-99.99,,,-99.99,,2013-02-18 18:33:00,
2013-02-18 13:43:00,68.0,46.0,30.27,East,82,10.0,18.0,45,-99.99,,,-99.99,,2013-02-18 18:43:00,
2013-02-18 13:53:00,68.0,46.0,30.27,East,82,10.0,18.0,45,-99.99,,,-99.99,,2013-02-18 18:53:00,
2013-02-18 14:03:00,68.0,46.0,30.27,East,82,10.0,18.0,45,-99.99,,,-99.99,,2013-02-18 19:03:00,
2013-02-18 14:13:00,70.0,46.0,30.25,East,89,11.0,20.0,42,-99.99,,,-99.99,,2013-02-18 19:13:00,
2013-02-18 14:22:00,69.0,46.0,30.24,East,87,10.0,24.0,43,-99.99,,,-99.99,,2013-02-18 19:22:00,
2013-02-18 14:33:00,69.0,46.0,30.24,East,87,10.0,24.0,43,-99.99,,,-99.99,,2013-02-18 19:33:00,
2013-02-18 14:43:00,70.0,45.0,30.24,ESE,112,9.0,17.0,40,-99.99,,,-99.99,,2013-02-18 19:43:00,
2013-02-18 14:53:00,70.0,45.0,30.24,ESE,112,9.0,17.0,40,-99.99,,,-99.99,,2013-02-18 19:53:00,
2013-02-18 15:02:00,70.0,45.0,30.24,ESE,112,9.0,17.0,40,-99.99,,,-99.99,,2013-02-18 20:02:00,
2013-02-18 15:13:00,71.0,45.0,30.22,ESE,113,8.0,14.0,39,-99.99,,,-99.99,,2013-02-18 20:13:00,
2013-02-18 15:23:00,71.0,45.0,30.22,ESE,113,8.0,14.0,39,-99.99,,,-99.99,,2013-02-18 20:23:00,
2013-02-18 15:33:00,71.0,45.0,30.22,ESE,113,8.0,14.0,39,-99.99,,,-99.99,,2013-02-18 20:33:00,
2013-02-18 15:42:00,71.0,46.0,30.23,ESE,104,7.0,15.0,40,-99.99,,,-99.99,,2013-02-18 20:42:00,
2013-02-18 15:53:00,71.0,46.0,30.23,ESE,104,7.0,15.0,40,-99.99,,,-99.99,,2013-02-18 20:53:00,
2013-02-18 16:03:00,71.0,46.0,30.22,ESE,103,8.0,18.0,40,-99.99,,,-99.99,,2013-02-18 21:03:00,
2013-02-18 16:12:00,72.0,46.0,30.22,SE,125,8.0,36.0,40,-99.99,,,-99.99,,2013-02-18 21:12:00,
2013-02-18 16:33:00,71.0,46.0,30.22,ESE,103,8.0,18.0,41,-99.99,,,-99.99,,2013-02-18 21:33:00,
2013-02-18 16:43:00,69.0,46.0,30.22,ESE,111,7.0,12.0,44,-99.99,,,-99.99,,2013-02-18 21:43:00,
2013-02-18 16:53:00,69.0,46.0,30.22,ESE,111,7.0,12.0,44,-99.99,,,-99.99,,2013-02-18 21:53:00,
2013-02-18 17:03:00,69.0,46.0,30.22,SE,129,7.0,13.0,44,-99.99,,,-99.99,,2013-02-18 22:03:00,
2013-02-18 17:13:00,69.0,46.0,30.22,SE,129,7.0,13.0,44,-99.99,,,-99.99,,2013-02-18 22:13:00,
2013-02-18 17:23:00,69.0,46.0,30.22,SE,129,7.0,13.0,44,-99.99,,,-99.99,,2013-02-18 22:23:00,
2013-02-18 17:33:00,69.0,48.0,30.22,ESE,115,6.0,14.0,46,-99.99,,,-99.99,,2013-02-18 22:33:00,
2013-02-18 17:43:00,69.0,48.0,30.22,ESE,115,6.0,14.0,46,-99.99,,,-99.99,,2013-02-18 22:43:00,
2013-02-18 17:54:00,69.0,48.0,30.22,ESE,115,6.0,14.0,46,-99.99,,,-99.99,,2013-02-18 22:54:00,
2013-02-18 18:03:00,69.0,48.0,30.21,East,93,7.0,15.0,46,-99.99,,,-99.99,,2013-02-18 23:03:00,
2013-02-18 18:12:00,69.0,48.0,30.21,East,93,7.0,15.0,46,-99.99,,,-99.99,,2013-02-18 23:12:00,
2013-02-18 18:23:00,67.0,49.0,30.22,East,86,7.0,15.0,51,-99.99,,,-99.99,,2013-02-18 23:23:00,
2013-02-18 18:34:00,67.0,49.0,30.22,East,86,7.0,15.0,51,-99.99,,,-99.99,,2013-02-18 23:34:00,
2013-02-18 18:43:00,66.0,49.0,30.22,East,86,5.0,11.0,53,-99.99,,,-99.99,,2013-02-18 23:43:00,
2013-02-18 18:54:00,66.0,49.0,30.22,East,86,5.0,11.0,53,-99.99,,,-99.99,,2013-02-18 23:54:00,
2013-02-18 19:03:00,65.0,49.0,30.22,East,92,4.0,9.0,56,-99.99,,,-99.99,,2013-02-19 00:03:00,
2013-02-18 19:13:00,61.0,49.0,30.22,East,85,3.0,5.0,64,-99.99,,,-99.99,,2013-02-19 00:13:00,
2013-02-18 19:23:00,61.0,49.0,30.22,East,85,3.0,5.0,64,-99.99,,,-99.99,,2013-02-19 00:23:00,
2013-02-18 19:35:00,60.0,49.0,30.22,East,84,3.0,6.0,66,-99.99,,,-99.99,,2013-02-19 00:35:00,
2013-02-18 19:43:00,60.0,49.0,30.22,East,84,3.0,6.0,66,-99.99,,,-99.99,,2013-02-19 00:43:00,
2013-02-18 19:55:00,59.0,49.0,30.23,ENE,72,2.0,6.0,69,-99.99,,,-99.99,,2013-02-19 00:55:00,
2013-02-18 20:03:00,59.0,49.0,30.23,ENE,72,2.0,6.0,69,-99.99,,,-99.99,,2013-02-19 01:03:00,
2013-02-18 20:14:00,57.0,49.0,30.23,ENE,68,3.0,6.0,75,-99.99,,,-99.99,,2013-02-19 01:14:00,
2013-02-18 20:24:00,57.0,49.0,30.23,ENE,68,3.0,6.0,75,-99.99,,,-99.99,,2013-02-19 01:24:00,
2013-02-18 20:35:00,59.0,49.0,30.23,ENE,69,3.0,5.0,70,-99.99,,,-99.99,,2013-02-19 01:35:00,
2013-02-18 20:44:00,59.0,49.0,30.23,ENE,69,3.0,5.0,70,-99.99,,,-99.99,,2013-02-19 01:44:00,
2013-02-18 20:56:00,58.0,49.0,30.23,ENE,61,3.0,6.0,71,-99.99,,,-99.99,,2013-02-19 01:56:00,
2013-02-18 21:04:00,58.0,49.0,30.23,ENE,61,3.0,6.0,71,-99.99,,,-99.99,,2013-02-19 02:04:00,
2013-02-18 21:14:00,58.0,49.0,30.23,ENE,59,3.0,6.0,72,-99.99,,,-99.99,,2013-02-19 02:14:00,
2013-02-18 21:15:00,56.0,49.0,30.24,NE,55,3.0,6.0,75,-99.99,,,-99.99,,2013-02-19 02:15:00,
2013-02-18 21:23:00,58.0,49.0,30.23,ENE,59,3.0,6.0,72,-99.99,,,-99.99,,2013-02-19 02:23:00,
2013-02-18 21:34:00,58.0,49.0,30.23,ENE,59,3.0,6.0,72,-99.99,,,-99.99,,2013-02-19 02:34:00,
2013-02-18 21:43:00,57.0,49.0,30.23,ENE,64,3.0,7.0,73,-99.99,,,-99.99,,2013-02-19 02:43:00,
2013-02-18 21:56:00,56.0,49.0,30.24,NE,55,3.0,6.0,75,-99.99,,,-99.99,,2013-02-19 02:56:00,
2013-02-18 22:07:00,56.0,49.0,30.24,NE,55,3.0,6.0,75,-99.99,,,-99.99,,2013-02-19 03:07:00,
2013-02-18 22:25:00,54.0,48.0,30.24,NE,44,3.0,5.0,79,-99.99,,,-99.99,,2013-02-19 03:25:00,
2013-02-18 22:35:00,54.0,48.0,30.24,NE,44,3.0,5.0,79,-99.99,,,-99.99,,2013-02-19 03:35:00,
2013-02-18 22:45:00,52.0,48.0,30.25,NNE,33,3.0,6.0,85,-99.99,,,-99.99,,2013-02-19 03:45:00,
2013-02-18 22:55:00,52.0,48.0,30.25,NNE,33,3.0,6.0,85,-99.99,,,-99.99,,2013-02-19 03:55:00,
2013-02-18 23:03:00,53.0,48.0,30.24,NE,47,3.0,5.0,84,-99.99,,,-99.99,,2013-02-19 04:03:00,
2013-02-18 23:14:00,53.0,48.0,30.24,NE,47,3.0,5.0,84,-99.99,,,-99.99,,2013-02-19 04:14:00,
2013-02-18 23:24:00,49.0,46.0,30.24,NE,36,3.0,5.0,89,-99.99,,,-99.99,,2013-02-19 04:24:00,
2013-02-18 23:34:00,49.0,46.0,30.24,NE,36,3.0,5.0,89,-99.99,,,-99.99,,2013-02-19 04:34:00,
2013-02-18 23:44:00,48.0,45.0,30.24,NE,35,2.0,4.0,91,-99.99,,,-99.99,,2013-02-19 04:44:00,
2013-02-18 23:56:00,48.0,45.0,30.24,NE,35,2.0,4.0,91,-99.99,,,-99.99,,2013-02-19 04:56:00,